DW5918 Weather Reports


Display with metric or nautical units.
time (UTC)temp
F
wind
direction
speed
MPH
gust
MPH
rain 1hr
in
rain 24hr
in
rain mn
in
humidity
%
barometer
mb
20260508081616 39 45 0.0 0.0 0.00 0.00 0.00 58 1010.1
20260508080031 39 45 0.0 0.0 0.00 0.00 0.00 59 1010.1
20260508073048 39 45 0.0 2.0 0.00 0.00 0.00 59 1010.0
20260508071639 39 46 0.0 0.0 0.00 0.00 0.00 60 1009.9
20260508070043 39 46 0.0 0.0 0.00 0.00 0.00 61 1009.9
20260508064634 39 46 0.0 0.0 0.00 0.01 0.00 62 1009.8
20260508063055 39 46 0.0 0.0 0.00 0.01 0.00 62 1009.6
20260508061510 39 46 0.0 1.0 0.00 0.01 0.00 60 1009.2
20260508054514 39 46 0.0 0.0 0.00 0.01 0.00 60 1009.3
20260508053057 39 46 0.0 0.0 0.00 0.01 0.00 59 1009.3
20260508051519 40 46 0.0 0.0 0.00 0.01 0.00 57 1009.3
20260508050114 40 46 0.0 2.0 0.00 0.01 0.00 60 1009.2
20260508044529 40 46 0.0 0.0 0.00 0.01 0.00 58 1009.5
20260508041543 41 46 0.0 3.0 0.00 0.01 0.00 61 1009.5
20260508040004 41 302 0.0 1.0 0.00 0.01 0.00 60 1009.7
20260508034612 41 302 0.0 0.0 0.00 0.01 0.01 59 1009.7
20260508033033 41 302 0.0 0.0 0.00 0.01 0.01 57 1009.8
20260508031628 41 302 0.0 0.0 0.00 0.01 0.01 56 1009.8
20260508030045 42 302 0.0 0.0 0.00 0.01 0.01 55 1009.7
20260508024506 43 302 0.0 0.0 0.00 0.02 0.01 55 1009.8
20260508023101 43 302 0.0 1.0 0.00 0.02 0.01 52 1009.8
20260508021510 43 302 0.0 1.0 0.00 0.02 0.01 51 1009.8
20260508020105 44 302 0.0 2.0 0.00 0.02 0.01 50 1009.7
20260508014514 44 302 0.0 2.0 0.00 0.06 0.01 49 1009.7
20260508013104 44 302 0.0 3.0 0.00 0.06 0.01 48 1009.5
20260508010110 45 338 0.0 3.0 0.00 0.06 0.01 48 1009.3
20260508004528 46 316 0.0 4.0 0.00 0.10 0.01 48 1009.1
20260508003120 46 275 0.0 7.0 0.00 0.10 0.01 48 1008.8
20260508001541 47 314 0.0 3.0 0.00 0.10 0.01 49 1008.8
20260508000120 47 287 0.0 1.0 0.00 0.10 0.01 48 1008.8
20260507234545 48 287 0.0 3.0 0.00 0.10 0.01 46 1008.7
20260507233134 49 319 1.0 10.0 0.00 0.10 0.01 44 1008.5
20260507231552 50 313 1.0 7.0 0.00 0.10 0.01 45 1008.3
20260507230024 50 261 1.0 5.0 0.00 0.10 0.01 45 1008.3
20260507224608 51 271 1.0 7.0 0.00 0.10 0.01 45 1008.3
20260507223030 51 304 1.0 9.0 0.00 0.10 0.01 44 1008.2
20260507221626 51 323 2.0 18.0 0.00 0.10 0.01 44 1008.3
20260507214635 52 261 3.0 10.0 0.00 0.17 0.01 43 1008.1
20260507213054 53 319 2.0 8.0 0.00 0.17 0.01 43 1008.1
20260507211532 53 315 0.0 7.0 0.00 0.17 0.01 45 1007.9
20260507210110 53 334 1.0 12.0 0.00 0.17 0.01 43 1007.8
20260507204537 53 284 2.0 14.0 0.00 0.20 0.01 43 1007.8
20260507203130 53 34 2.0 12.0 0.00 0.20 0.01 44 1007.7
20260507201552 53 322 0.0 9.0 0.00 0.20 0.01 43 1007.9
20260507200009 55 244 6.0 15.0 0.00 0.20 0.01 40 1007.9
20260507194600 56 308 2.0 8.0 0.00 0.24 0.01 40 1008.2
20260507193014 55 281 3.0 11.0 0.00 0.24 0.01 39 1008.3
20260507191608 55 277 2.0 10.0 0.00 0.24 0.01 42 1008.3
20260507190028 54 350 1.0 12.0 0.00 0.24 0.01 42 1008.4
20260507184624 53 11 1.0 10.0 0.00 0.31 0.01 42 1008.5
20260507183049 54 299 2.0 10.0 0.00 0.31 0.01 40 1008.8
20260507181504 54 276 1.0 13.0 0.00 0.31 0.01 43 1008.8
20260507174523 54 296 3.0 9.0 0.00 0.36 0.01 41 1009.3
20260507173116 56 350 1.0 11.0 0.00 0.36 0.01 40 1009.3
20260507171534 55 277 2.0 9.0 0.00 0.36 0.01 42 1009.1
20260507170126 55 232 1.0 10.0 0.00 0.36 0.01 43 1009.0
20260507164544 55 271 4.0 10.0 0.00 0.39 0.01 41 1009.1
20260507161552 53 309 4.0 10.0 0.00 0.39 0.01 43 1009.6
20260507160032 52 281 3.0 10.0 0.00 0.39 0.01 43 1009.9
20260507154602 52 277 5.0 14.0 0.00 0.39 0.01 42 1010.1
20260507153019 51 301 3.0 9.0 0.00 0.39 0.01 47 1010.1
20260507151615 51 340 1.0 13.0 0.00 0.39 0.01 44 1010.1
20260507150040 51 5 3.0 11.0 0.00 0.39 0.01 46 1010.1
20260507144628 49 204 2.0 8.0 0.00 0.39 0.01 49 1010.2
20260507143043 48 30 2.0 10.0 0.00 0.39 0.01 50 1010.1
20260507141512 48 13 2.0 7.0 0.00 0.39 0.01 51 1010.1
20260507140107 47 275 2.0 13.0 0.00 0.39 0.01 54 1010.3
20260507134515 47 327 2.0 10.0 0.00 0.39 0.01 59 1010.0
20260507133116 46 334 4.0 13.0 0.00 0.39 0.01 57 1009.9
20260507130118 44 284 2.0 9.0 0.00 0.39 0.01 65 1009.8
20260507124545 44 286 2.0 8.0 0.00 0.39 0.01 68 1009.8
20260507123122 43 262 2.0 8.0 0.00 0.39 0.01 70 1009.8
20260507121546 43 332 3.0 10.0 0.00 0.39 0.01 71 1009.9
20260507120007 42 324 3.0 10.0 0.00 0.39 0.01 71 1009.9
20260507114607 41 309 0.0 9.0 0.00 0.39 0.01 69 1009.6
20260507113011 41 322 1.0 7.0 0.00 0.39 0.01 65 1009.4
20260507111630 41 271 2.0 7.0 0.00 0.39 0.01 58 1009.5
20260507110058 41 360 0.0 10.0 0.00 0.39 0.01 46 1009.4
20260507104515 40 302 0.0 3.0 0.00 0.39 0.01 20 1009.2
20260507103111 40 332 1.0 5.0 0.00 0.39 0.01 14 1008.9
20260507101529 40 304 0.0 3.0 0.00 0.39 0.01 10 1008.6
20260507094546 41 333 0.0 3.0 0.00 0.39 0.01 1 1008.4
20260507093003 41 13 1.0 3.0 0.00 0.39 0.01 1 1008.2
20260507091555 42 229 1.0 6.0 0.00 0.39 0.01 1 1008.5
20260507090015 42 360 1.0 3.0 0.00 0.39 0.01 1 1008.4
20260507084611 42 360 0.0 6.0 0.00 0.39 0.01 1 1008.6
20260507083033 42 297 1.0 8.0 0.00 0.39 0.01 1 1008.6